www.pogodaiklimat.ru

Погода и климат >> Архив погоды >> Россия >> Красноярский край >> Ермаковское


ПОГОДА в Ермаковском

  • Прогноз погоды в Ермаковском
  • Монитор погоды в Ермаковском

АРХИВ ПОГОДЫ в Ермаковском

Время (UTC), дата Ветер
(напр.,м/с)
 
Видим.   Явления Облачность Т
(С)
Тd
(С)
f
(%)
Тe
(С)
Тes
(С)
Комфортность P
(гПа)
Po
(гПа)
Тmin
(С)
Tmax
(С)
R
(мм)
R24
(мм)
S
(см)
15 14.08 З 1 н/о 5/0
[Ci fib]
+13.8 +11.9 88 +14 +14 1012.0 977.0
18 14.08 штиль 0 н/о ясно +11.5 +10.5 94 +11 +11 1012.6 977.4
21 14.08 штиль 0 н/о 10/10 1000 м
[Sc]
+12.0 +11.2 95 +11 +11 1012.8 977.6
00 15.08 СВ 1 10 км в посл. час ливневой дождь 9/6 600 м
[Cb cap Ac cast]
+12.2 +11.4 95 +12 +12 1012.5 977.4 +11.3 1
03 15.08 СВ 1 10 км 8/3 1000 м
[Sc Ac trans Cc]
+17.3 +14.3 83 +18 +23 1010.8 976.3
06 15.08 В 2 20 км 8/5 1000 м
[Sc Ac trans Cc]
+21.6 +15.2 67 +25 +29 комфорт 1009.7 975.8
09 15.08 СВ 3 20 км 8/3 1000 м
[Sc diur, vesp Cc]
+24.5 +15.0 55 +27 +31 жарко 1008.1 974.5
12 15.08 СВ 2 20 км 4/0
[Ac trans Ci fib]
+23.9 +15.8 60 +27 +27 жарко 1007.6 974.0 +25.2
15 15.08 штиль 0 н/о ясно +17.9 +16.2 90 +18 +18 1008.4 974.1
18 15.08 штиль 0 н/о ясно +14.0 +13.3 96 +14 +14 1008.9 974.1
21 15.08 С 1 н/о 3/3 1000 м
[Sc]
+13.0 +12.1 94 +13 +13 1007.9 973.0
00 16.08 СВ 1 н/о н/о +14.9 +13.7 93 +15 +16 1006.1 971.6 +11.8
03 16.08 штиль 0 10 км 10/4 1000 м
[Sc diur, vesp Ac As]
+17.2 +13.5 79 +17 +19 1005.5 971.2
06 16.08 Ю 2 10 км слаб. ливневой дождь 10/10 600 м
[Cb cap]
+18.0 +15.5 85 +19 +19 1006.1 971.9
09 16.08 З 1 4000 м ливневой дождь 10/10 600 м
[Cb cap]
+17.8 +16.6 93 +19 +19 1007.0 972.7
12 16.08 ЮЗ 1 4000 м ливневой дождь 10/10 600 м
[Cb cap]
+16.0 +15.1 94 +17 +17 1008.3 973.8 +18.8 9
15 16.08 З 4 н/о ливневой дождь 10/10 600 м
[Cb cap]
+15.4 +14.5 94 +14 +14 1009.2 974.6
18 16.08 З 1
{10}
н/о в посл. час ливневой дождь 9/9 600 м
[Cb cap]
+15.1 +14.2 94 +16 +16 1010.0 975.4
21 16.08 ЮЗ 1 н/о 5/3 1000 м
[Sc Cc]
+14.3 +13.4 94 +15 +15 1010.5 975.6
00 17.08 Ю 1 10 км 9/6 600 м
[Cb cap Ac cast Cc]
+14.6 +13.9 96 +15 +15 1011.4 976.5 +13.8 19
03 17.08 З 2 10 км 9/9 600 м
[Cb cap]
+17.0 +14.6 86 +17 +18 1011.6 977.1
06 17.08 З 3 10 км 10/10 600 м
[Cb cap]
+17.5 +14.0 80 +18 +18 1012.4 977.9
09 17.08 З 2 10 км 10/10 600 м
[Cb cap]
+18.8 +13.9 73 +20 +20 1012.9 978.5
12 17.08 штиль 0 20 км 9/5 1000 м
[Sc Ac trans]
+18.8 +13.9 73 +20 +20 1012.5 978.1 +19.3
15 17.08 штиль 0 н/о 10/10 600 м
[Cb cap]
+16.0 +14.6 91 +16 +16 1013.5 978.8
18 17.08 штиль 0 н/о дымка 10/10 600 м
[Cb cap]
+14.2 +13.7 97 +14 +14 1013.5 978.5
21 17.08 ЮВ 1 н/о дымка 10/10 600 м
[Cb cap]
+12.6 +12.4 99 +12 +12 1013.2 978.1
00 18.08 штиль 0 200 м туман ?/? +12.8 +12.8 100 +12 +12 1013.5 978.4 +12.2
03 18.08 СВ 1 500 м туман 10/10 1000 м
[Sc]
+14.2 +13.8 97 +14 +14 1013.0 978.1
06 18.08 В 1 20 км {туман} 8/8 600 м
[Cb cap Ci ing]
+21.0 +13.4 62 +25 +28 комфорт 1010.2 976.2
09 18.08 СЗ 2 20 км 5/4 1000 м
[Cu med, cong Ci fib]
+22.6 +13.7 57 +26 +30 жарко 1009.0 975.2
12 18.08 З 3 10 км {гроза, ливн. осадки} 8/8 600 м
[Cb cap]
+21.6 +14.8 65 +25 +25 комфорт 1009.7 975.8 +23.0 0.0
15 18.08 З 1 н/о {гроза} 8/8 600 м
[Cb cap]
+17.2 +13.7 80 +18 +18 1011.5 977.0
18 18.08 ЮЗ 1 н/о {гроза} 8/8 1000 м
[Sc]
+15.3 +12.6 84 +16 +16 1013.4 978.6
21 18.08 штиль 0 н/о 6/0
[Ac lent Ci fib]
+10.9 +10.1 95 +10 +10 1015.0 979.5
00 19.08 штиль 0 10 км 9/6 1000 м
[Sc Ac trans]
+12.2 +11.4 95 +12 +12 1016.3 981.1 +10.8
03 19.08 З 3 10 км 4/3 1000 м
[Sc Ac trans Cc]
+17.4 +12.9 75 +17 +22 1017.0 982.3
06 19.08 СЗ 3 10 км 8/8 1000 м
[Sc diur, vesp]
+21.1 +9.6 48 +22 +25 комфорт 1016.8 982.4
09 19.08 СЗ 2 10 км 6/4 1000 м
[Sc diur, vesp Cc]
+22.7 +10.8 47 +25 +29 комфорт 1016.0 981.9
12 19.08 штиль 0 10 км 8/3 1000 м
[Sc diur, vesp Ac trans Cc]
+21.9 +10.4 48 +24 +24 комфорт 1015.9 981.7 +23.1
15 19.08 штиль 0 н/о 10/10 1000 м
[Sc]
+15.2 +14.5 96 +15 +15 1017.4 982.4
18 19.08 СВ 1 н/о 4/0
[Ac trans]
+13.5 +12.6 94 +14 +14 1017.4 982.2
21 19.08 СВ 1 н/о 8/3 1000 м
[Sc Ac trans]
+12.3 +11.5 95 +12 +12 1016.8 981.5
00 20.08 СВ 1 10 км 10/10 600 м
[Cb cap]
+12.3 +11.4 94 +12 +12 1016.2 981.0 +11.5
03 20.08 СВ 1 10 км 8/5 1000 м
[Sc Ac trans Cc]
+16.2 +12.6 79 +17 +20 1014.9 980.2
06 20.08 СВ 1 10 км 8/4 1000 м
[Sc Ac trans Cc]
+21.0 +14.2 65 +25 +31 комфорт 1012.8 978.7
09 20.08 СВ 2 10 км 8/3 1000 м
[Sc Ac trans Cc]
+24.2 +13.0 50 +26 +29 жарко 1010.4 976.7
12 20.08 З 7-15
{15}
10 км ливневой дождь 10/10 600 м
[Cb cap]
+19.0 +13.6 71 +19 +19 1013.4 979.0 +24.7 0.0
15 20.08 штиль 0
{15}
н/о {гроза, ливн. осадки} 8/8 1000 м
[Sc]
+15.4 +14.3 93 +15 +15 1015.2 980.4
18 20.08 штиль 0 н/о {гроза, ливн. осадки} 8/8 1000 м
[Sc]
+15.0 +13.6 91 +15 +15 1016.8 981.8
21 20.08 ЮВ 1 н/о 10/10 600 м
[Cb cap]
+13.4 +12.5 94 +13 +13 1017.0 981.8
00 21.08 штиль 0 20 км 9/9 600 м
[Cb cap]
+12.9 +12.3 96 +12 +12 1017.1 981.8 +12.6 5
03 21.08 В 1 20 км 5/3 1000 м
[Sc Ac trans]
+16.5 +13.9 85 +17 +23 1016.7 981.9
06 21.08 СВ 2 20 км 6/5 600 м
[Cb cap Ac trans]
+20.1 +11.6 58 +22 +28 комфорт 1014.7 980.5
09 21.08 В 1 20 км 9/9 600 м
[Cb cap]
+21.2 +11.1 52 +23 +24 комфорт 1013.9 979.8
12 21.08 Ю 1 20 км 9/4 600 м
[Cb cap Ac lent Cc]
+20.0 +13.2 65 +23 +23 комфорт 1013.7 979.5 +21.5

 

Местоположение метеостанции Ермаковское (Красноярский край, Россия): широта 53.30 долгота 92.42 высота над уровнем моря 298 м.

В архиве по умолчанию представлена погода в Ермаковском за последнюю неделю. Архивные данные за месяц целиком и за предыдущие месяцы, начиная с января 2011 года, Вы можете получить, выбрав интересующий диапазон дат из раскрывающегося списка и нажав кнопку "Ввод!".


*Определитесь, кто Вы:
робот инопланетянин человек

Внимание! Время в таблицах - всемирное. Для получения местного времени необходимо прибавить поправку, которая равна 7 ч.

Смотрите также архив погоды в соседних городах и на ближайших метеорологических станциях:

Погода в Каратузском (Красноярский край, Россия) (44 км)
Погода в Теси (Красноярский край, Россия) (65 км)
Погода в Минусинске (Красноярский край, Россия) (67 км)
Погода в Курагино (Красноярский край, Россия) (69 км)
Погода в Саяногорске (Хакасия, Россия) (70 км)
Погода в Оленьей Речке (Красноярский край, Россия) (78 км)
Погода в Черемушках (Хакасия, Россия) (87 км)
Погода в Карловом Створе (Хакасия, Россия) (88 км)
Погода в Хакасской (Хакасия, Россия) (90 км)
Погода в Бее (Хакасия, Россия) (104 км)

Пояснения к столбцам:

Ветер - указаны скорость ветра в м/с - средняя за 10 мин, порывы в срок и между сроками (в фигурных скобках) и направление, откуда дует ветер: С - северный, СВ - северо-восточный, В - восточный, ЮВ - юго-восточный, Ю - южный, ЮЗ - юго-западный, З - западный, СЗ - северо-западный.
Видимость - горизонтальная дальность видимости в метрах или километрах. При видимости от 1 до 10 км при отсутствии осадков обычно наблюдается дымка, при ухудшении видимости до 1 км и менее - туман. В сухую погоду видимость может ухудшаться дымом, пылью или мглою.
Явления - указаны атмосферные явления, наблюдавшиеся в срок или в последний час перед сроком; фигурными скобками обозначены явления, наблюдавшиеся между сроками (за 1-3 часа до срока); квадратными скобками обозначены град или гололедные отложения с указанием их диаметра в мм.
Облачность - указаны через наклонную черту общая и нижняя облачность в баллах и высота нижней границы облаков в метрах; квадратными скобками обозначены формы облаков: Ci - перистые, Cs - перисто-слоистые, Cc - перисто-кучевые, Ac - высококучевые, As - высокослоистые, Sc - слоисто-кучевые, Ns - слоисто-дождевые, Cu - кучевые, Cb - кучево-дождевые. Подробнее классификацию облаков см. в Атласе облаков (PDF).
T - Температура воздуха - температура, измеренная на высоте 2 м над землей.
Td - Температура точки росы - температура, при понижении до которой содержащийся в воздухе водяной пар достигнет насыщения.
f - Относительная влажность воздуха - влажноcть воздуха, измеренная на высоте 2 м над землей.
Te - Эффективная температура - температура, которую ощущает одетый по сезону человек в тени. Характеристика душности погоды. При расчете учитывается влияние влажности воздуха и скорости ветра на теплоощущения человека.
Tes - Эффективная температура на солнце - температура, которую ощущает человек, с поправкой на солнечный нагрев. Характеристика знойности погоды. Зависит от высоты солнца над горизонтом, облачности и скорости ветра. Ночью, в пасмурную погоду, а также при ветре 12 м/с и более поправка равна нулю.
P - Атмосферное давление - приведенное к уровню моря атмосферное давление.
Po - Атмосферное давление - измеренное на уровне метеостанции атмосферное давление.
Tmin - Минимальная температура - минимум температуры воздуха на высоте 2 м над землей.
Tmax - Максимальная температура - максимум температуры воздуха на высоте 2 м над землей.
R - Количество осадков - Количество выпавших осадков за период времени, мм. При наведении курсора мыши на число - период времени, за который выпало указанное количество осадков.
R24 - Количество осадков - Количество выпавших осадков за 24 часа, мм.
S - Снежный покров - Высота снежного покрова, см. При наведении курсора мыши на число - состояние снежного покрова и степень покрытия местности в баллах.